Location: Melizzano
(41.1500°N, 14.5000°E)
Time: 07:07:14
(UTC+00:00)

Cosmos 1709 Rocket - Pass Details

Date: 27 September 2021
Orbit: 948 x 1002 km, 82.9° (Epoch: 27 October)

Event Time Altitude Azimuth Distance (km) Brightness Sun altitude
Rises 17:29:01 0° 213° (SSW) 3,659 7.4 -8.1°
Reaches altitude 10° 17:31:48 10° 223° (SW) 2,707 6.9 -8.6°
Maximum altitude 17:37:19 33° 286° (WNW) 1,559 5.9 -9.6°
Drops below altitude 10° 17:42:48 10° 349° (N) 2,692 6.6 -10.7°
Sets 17:45:35 0° 359° (N) 3,636 7.1 -11.2°
